Retour au catalogue

STARLINK-36148

ActifCommunicationsVLEO
NORAD 67005·PAYLOAD·🇺🇸 United States

Lancé Dec 10, 2025 depuis Vandenberg Space Force Base

Loading…

Prochains Passages (prochaines 24 heures)

TLE

FraisSource: CelesTrak SupGP

Époque: Sep 14, 2026, 22:34 UTC

1 67005C 25293C   26257.94076389 -.00018682  00000+0 -15653-2 0  2572
2 67005  70.0022 337.3889 0003522 266.2594  82.8987 14.98347010    18

Suivez STARLINK-36148 en temps réel avec AllMySat

Download on the App Store